User: anonymous   Login
Location: Unspecified
(0.0000°N, 0.0000°E)
Time: 04:47:45
(UTC+00:00)
Language:

Asterix - Orbit

View from above orbital plane
View from above orbital plane
View from above satellite
View from above satellite

Ground track
Ground track

The orbit data is extracted from the following two-line orbital elements,

1  1778U 65096A   18020.17011411 +.00000052 +00000-0 +13289-4 0  9990
2  1778 034.2569 281.1446 0751719 177.2641 183.2450 13.46855829550451
Epoch (UTC): 20 January 2018 04:04:57
Eccentricity: 0.0751719
inclination: 34.2569°
perigee height: 523 km
apogee height: 1645 km
right ascension of ascending node: 281.1446°
argument of perigee: 177.2641°
revolutions per day: 13.46855829
mean anomaly at epoch: 183.2450°
orbit number at epoch: 55045

The dashed part of the orbit path shows where the satellite is in the earth's shadow,  

DLR